Wind_Speed
25 26 29 29 28 30 31 30 31 29 30 29 30 31 31 32 32 33 33 32 30 26 23 22 22 21 21 24 26 27 28 29 29 28 28 29 29 28 28 28 28 29 29 29
27 28 31 30 28 31 33 32 32 31 29 30 30 30 29 29 30 30 30 28 26 23 21 20 19 19 19 20 22 23 24 24 25 26 26 27 27 27 27 28 28 29 29 29
27 27 31 30 28 31 33 32 32 30 29 29 29 29 28 28 28 27 26 25 24 22 21 20 19 19 19 20 21 23 23 23 24 24 25 26 26 27 27 27 28 28 28 28
27 27 29 27 27 29 31 30 30 30 29 30 29 28 28 27 26 25 24 23 22 22 21 19 18 18 18 19 20 21 22 22 23 23 24 24 25 25 25 26 26 26 26 26
27 27 26 23 26 30 31 28 27 29 29 30 29 29 28 27 25 24 22 21 20 20 19 18 17 17 17 18 18 18 19 20 21 22 22 22 22 22 22 23 23 22 22 22
27 28 27 24 26 28 30 26 26 29 29 30 30 29 28 26 24 22 21 19 18 18 17 16 15 15 15 15 15 16 16 17 18 19 20 20 19 18 18 18 18 18 18 18
28 29 27 27 29 28 28 27 27 28 28 29 30 30 28 26 23 21 19 18 17 16 15 14 13 13 13 12 12 12 13 13 14 15 15 16 16 15 15 15 15 15 15 16
29 29 28 29 30 29 28 28 28 28 28 29 28 28 27 25 22 20 19 17 15 14 14 13 12 11 11 10 10 10 10 10 11 11 11 12 13 13 13 13 13 13 14 14
30 29 29 30 31 30 29 28 28 29 29 29 29 28 27 25 22 20 19 17 16 14 13 12 11 10 9 9 8 8 8 8 9 9 10 11 11 11 12 12 12 12 13 13
31 30 31 32 32 31 31 30 29 29 29 29 29 29 28 26 23 21 20 18 17 16 14 12 11 10 9 9 8 7 7 8 9 9 9 10 10 11 11 12 12 12 13 13
32 31 32 32 32 33 32 31 30 29 28 28 28 27 27 26 25 23 21 20 19 17 16 14 13 12 11 10 9 9 9 9 9 10 10 10 11 11 12 12 12 13 13 13
36 35 34 33 33 34 33 31 30 29 28 27 27 27 27 27 27 26 24 23 21 20 19 17 16 15 13 12 11 11 10 11 11 11 11 12 12 13 13 13 13 13 13 14
39 38 36 34 34 34 34 32 31 29 28 26 25 25 26 28 28 27 26 24 23 23 22 21 19 18 17 15 14 14 13 13 13 13 13 13 14 14 14 14 14 14 14 14
40 40 37 36 35 35 34 33 33 31 29 27 25 24 24 26 27 27 26 26 25 25 25 24 23 22 20 19 18 17 17 16 15 15 15 15 15 16 16 16 15 15 15 15
42 41 39 37 36 36 35 35 34 33 31 28 26 25 24 24 25 26 27 26 25 25 25 25 25 24 23 22 21 20 20 19 19 18 18 18 18 18 17 17 17 17 16 16
42 41 39 39 38 37 37 36 36 35 34 31 28 26 25 24 23 24 25 24 24 24 24 24 24 24 24 23 23 23 22 22 21 21 21 20 20 20 19 19 19 18 18 17
43 42 40 40 40 40 40 39 38 37 36 34 32 29 27 27 26 25 26 25 25 24 23 23 24 24 24 24 24 24 24 24 23 23 22 22 22 21 21 21 20 20 19 19
45 44 43 42 43 42 42 43 40 40 39 38 36 33 31 29 28 27 28 27 27 25 23 23 23 23 23 23 24 23 24 24 25 25 24 24 23 23 22 22 22 21 21 21
46 46 46 47 47 46 45 45 44 43 42 41 38 36 34 32 31 30 30 29 27 25 25 25 25 24 23 23 22 22 22 23 24 25 26 25 24 24 23 23 23 22 22 22
53 53 53 54 54 52 50 48 47 46 45 44 42 39 37 36 35 33 32 30 28 27 28 29 28 26 24 24 23 22 22 22 22 24 25 25 25 25 24 24 23 23 22 23
61 62 62 62 61 61 59 56 52 50 49 47 45 43 40 38 37 37 35 32 29 29 30 31 30 28 27 26 25 23 22 22 22 23 23 24 25 24 24 24 24 23 23 23
67 68 68 68 67 67 67 66 64 61 56 52 49 46 44 42 40 39 37 35 32 31 31 32 31 29 29 28 28 25 24 23 22 22 22 22 23 24 24 23 23 23 23 24
65 65 66 67 68 69 70 70 69 67 63 58 53 49 46 45 45 43 39 37 36 35 34 33 32 31 31 31 30 27 25 24 24 22 21 21 22 23 23 23 22 23 23 23
58 58 58 58 59 60 62 64 65 64 62 59 56 53 49 47 44 43 41 39 38 37 35 34 33 34 34 34 32 30 27 26 25 23 21 20 20 21 21 21 22 22 22 23
53 51 48 46 45 45 45 46 47 48 49 49 49 48 48 46 43 42 42 40 39 39 38 36 36 35 36 36 34 32 30 28 27 25 22 21 20 20 20 21 22 22 22 22
47 43 40 37 34 32 32 32 32 33 34 34 36 38 39 40 41 40 39 38 37 37 37 37 36 36 36 36 36 34 32 30 29 26 23 22 21 20 20 20 21 21 21 22
38 35 32 29 27 25 25 24 23 22 23 24 24 26 28 31 33 34 34 34 35 35 35 35 35 35 36 37 36 34 33 31 29 27 25 24 22 21 20 20 20 21 21 21
Wind_Direction
291 290 288 287 289 288 286 287 289 291 294 296 298 303 310 315 319 321 321 320 317 312 302 291 282 272 259 255 250 248 247 247 247 249 251 253 255 256 258 260 262 264 266 268
294 291 290 290 289 285 284 284 285 287 291 292 296 301 308 315 319 322 322 321 318 314 306 297 289 280 270 261 253 250 249 250 251 252 254 255 256 257 259 261 263 266 268 269
302 298 296 298 294 288 285 284 284 284 286 288 292 297 304 312 318 321 322 320 318 316 309 303 295 285 277 270 262 257 256 255 255 256 256 256 258 259 261 263 266 267 269 271
309 305 303 309 300 294 290 288 285 282 282 284 288 294 299 306 313 318 320 320 318 315 312 305 300 294 287 279 269 264 261 259 258 258 259 261 262 262 262 264 267 269 270 274
315 313 316 317 304 297 294 291 285 281 280 282 284 288 293 299 306 313 316 318 318 316 314 310 305 299 293 287 278 271 265 261 259 260 261 264 264 264 265 266 269 271 274 276
319 317 321 322 308 303 299 296 286 280 279 281 283 284 287 291 297 306 313 316 318 317 315 314 310 305 300 291 281 274 270 264 262 263 263 263 263 264 265 266 268 271 275 278
319 318 323 317 312 309 303 299 291 286 282 281 282 282 283 283 288 297 306 312 316 317 317 317 315 312 307 298 286 279 275 271 266 263 260 259 261 263 264 265 268 271 276 279
319 320 321 315 314 311 306 300 295 291 285 283 283 281 279 278 280 287 295 302 310 315 317 318 317 314 311 306 296 285 278 273 268 265 261 259 260 261 261 264 269 272 276 280
318 320 316 314 313 312 308 303 298 295 289 284 282 280 278 275 274 278 284 290 297 304 310 314 315 314 312 309 302 293 283 276 272 270 267 263 260 260 262 266 269 272 277 283
315 315 310 310 312 310 309 306 301 297 293 286 283 280 276 272 270 271 274 278 284 290 296 300 305 306 307 308 306 299 290 284 279 273 269 265 263 264 266 268 270 274 279 284
314 308 305 307 306 306 306 305 303 299 295 288 283 278 275 271 268 269 269 270 273 278 282 285 288 291 293 294 295 293 288 284 280 273 269 267 266 268 269 271 273 277 282 286
311 307 304 303 300 300 301 301 300 298 295 290 284 277 271 269 269 268 267 266 266 269 272 274 275 277 279 281 282 283 282 281 279 276 274 272 272 271 272 274 277 281 285 290
309 306 303 300 297 296 296 296 295 295 293 290 284 277 271 268 269 269 266 264 263 264 266 267 267 268 269 271 272 273 274 276 276 276 275 275 274 273 275 277 279 283 286 292
306 303 301 298 294 293 292 291 290 290 290 287 282 276 274 270 267 267 265 264 264 264 264 264 263 264 265 265 266 267 268 269 270 271 271 272 274 275 275 277 279 282 285 290
303 300 298 295 291 289 288 288 287 287 286 284 280 276 273 270 268 267 267 266 265 264 263 262 262 261 261 262 262 263 263 264 265 266 268 270 272 273 274 276 278 280 283 287
299 296 294 292 290 287 285 284 283 282 280 279 278 275 272 268 268 267 268 268 267 267 265 262 261 260 260 261 261 261 261 261 262 263 264 266 268 269 271 274 277 279 281 285
297 294 291 288 287 285 283 281 279 279 276 272 271 270 269 267 266 266 265 266 267 266 265 263 262 261 261 261 261 261 260 259 259 261 262 263 264 266 268 271 274 276 278 282
296 294 290 288 286 284 281 278 273 273 272 270 267 265 264 263 262 262 262 263 264 265 265 266 265 264 262 262 262 262 262 260 258 258 260 261 262 264 266 268 270 273 275 279
291 289 288 287 285 281 278 275 270 268 268 264 262 261 260 259 257 257 259 261 264 265 266 267 267 266 264 262 263 263 264 263 260 258 258 258 260 261 263 265 267 270 273 276
287 286 283 281 282 279 276 272 267 264 261 260 259 259 258 256 255 254 255 256 260 260 260 262 264 265 265 264 263 264 265 266 266 263 260 258 258 258 260 263 265 268 270 274
285 283 282 280 278 276 274 272 269 265 261 259 257 256 254 253 253 251 252 252 253 254 255 258 261 263 264 264 264 265 267 269 270 269 265 261 259 258 259 261 264 266 269 271
284 281 281 280 278 276 273 272 270 268 265 262 258 256 253 252 252 251 250 249 249 251 254 256 259 261 263 264 265 264 266 270 273 272 269 264 260 258 259 261 262 265 268 272
291 288 286 283 280 277 275 273 271 270 268 265 261 258 254 251 251 251 251 249 247 247 251 254 256 258 260 262 262 262 263 267 272 272 271 268 264 260 259 261 263 267 270 275
301 298 294 290 287 283 278 275 273 272 270 267 265 262 259 255 252 251 250 248 246 246 248 251 253 255 257 258 259 259 260 265 268 269 270 269 266 263 262 264 267 269 273 277
308 307 304 299 294 290 285 280 275 272 270 268 266 263 261 258 255 252 250 248 247 247 249 252 252 252 253 254 254 255 256 259 260 263 267 268 267 266 266 266 268 270 274 278
312 311 310 308 304 300 295 288 282 277 271 267 263 259 258 257 256 253 251 248 247 247 248 249 250 249 249 250 250 250 252 253 254 257 262 265 267 268 268 268 269 271 275 278
315 315 316 316 314 309 306 300 292 284 275 264 253 247 246 248 250 251 250 248 246 244 246 248 247 246 246 245 246 246 246 247 249 252 256 261 265 267 269 269 271 271 273 277
Height
5799 5797 5793 5792 5791 5787 5784 5782 5780 5778 5775 5773 5769 5766 5763 5758 5753 5747 5741 5735 5729 5724 5720 5717 5715 5713 5713 5715 5716 5717 5719 5721 5722 5725 5727 5729 5731 5733 5735 5737 5738 5739 5739 5739
5792 5790 5785 5784 5783 5779 5776 5773 5771 5769 5768 5764 5762 5759 5756 5752 5747 5742 5736 5731 5726 5721 5717 5714 5712 5710 5709 5709 5710 5711 5712 5714 5716 5718 5720 5722 5724 5726 5727 5729 5730 5730 5731 5731
5784 5782 5777 5776 5775 5770 5767 5765 5763 5761 5760 5757 5754 5751 5749 5746 5742 5737 5732 5727 5723 5718 5715 5711 5709 5707 5706 5705 5705 5706 5707 5709 5710 5712 5714 5715 5717 5718 5720 5721 5722 5722 5723 5723
5777 5775 5771 5773 5766 5762 5758 5757 5754 5752 5751 5749 5747 5745 5742 5739 5736 5732 5728 5724 5720 5716 5712 5709 5706 5704 5702 5701 5701 5701 5702 5704 5705 5706 5708 5709 5711 5712 5713 5714 5715 5715 5716 5716
5772 5768 5765 5765 5759 5754 5750 5749 5747 5744 5743 5741 5739 5737 5735 5733 5731 5728 5724 5720 5716 5713 5709 5706 5703 5701 5699 5698 5697 5698 5698 5699 5700 5701 5703 5704 5705 5706 5707 5708 5708 5709 5709 5710
5767 5762 5759 5760 5753 5747 5744 5743 5741 5737 5735 5734 5732 5731 5729 5727 5725 5722 5719 5716 5713 5709 5706 5703 5700 5698 5696 5695 5694 5694 5694 5695 5696 5697 5698 5699 5699 5700 5701 5702 5703 5704 5704 5705
5762 5756 5754 5752 5746 5742 5739 5737 5733 5730 5728 5726 5725 5723 5722 5720 5719 5717 5715 5712 5709 5706 5703 5700 5697 5695 5693 5692 5691 5691 5691 5691 5692 5693 5693 5694 5695 5696 5697 5698 5698 5699 5699 5699
5757 5752 5750 5744 5739 5736 5732 5728 5725 5722 5720 5719 5717 5715 5714 5713 5712 5711 5710 5708 5705 5703 5700 5697 5695 5693 5691 5690 5689 5688 5688 5688 5689 5689 5690 5690 5691 5692 5693 5694 5695 5695 5695 5695
5752 5749 5743 5737 5732 5729 5724 5721 5717 5714 5712 5710 5709 5707 5706 5705 5705 5705 5704 5703 5701 5699 5697 5695 5693 5691 5689 5688 5687 5686 5686 5686 5686 5687 5687 5687 5688 5689 5690 5690 5691 5691 5691 5691
5745 5741 5736 5731 5726 5721 5717 5713 5710 5706 5704 5701 5700 5699 5698 5698 5698 5697 5697 5697 5696 5695 5693 5692 5690 5688 5687 5686 5685 5685 5684 5684 5684 5684 5684 5685 5685 5686 5687 5687 5687 5688 5687 5687
5738 5733 5728 5725 5719 5714 5710 5706 5702 5699 5696 5693 5692 5691 5690 5689 5689 5690 5690 5690 5690 5689 5688 5688 5687 5685 5684 5684 5683 5682 5682 5682 5682 5682 5682 5682 5683 5683 5683 5684 5684 5684 5683 5682
5729 5724 5720 5717 5711 5706 5702 5698 5695 5691 5688 5685 5683 5682 5682 5681 5681 5682 5682 5683 5683 5683 5683 5682 5682 5681 5681 5680 5680 5680 5679 5679 5679 5679 5679 5679 5679 5680 5680 5680 5680 5679 5679 5678
5720 5715 5711 5707 5702 5698 5694 5690 5687 5684 5681 5678 5676 5675 5674 5673 5673 5673 5674 5675 5675 5675 5676 5676 5676 5676 5676 5676 5675 5675 5675 5675 5675 5675 5675 5675 5676 5676 5676 5676 5675 5675 5674 5673
5709 5704 5701 5697 5693 5689 5685 5681 5678 5676 5673 5671 5669 5667 5666 5665 5665 5665 5665 5666 5667 5667 5668 5668 5669 5669 5669 5669 5669 5670 5670 5670 5670 5670 5671 5671 5671 5671 5671 5670 5670 5669 5669 5668
5698 5693 5690 5686 5682 5678 5675 5671 5669 5667 5665 5663 5661 5660 5659 5658 5657 5657 5657 5657 5658 5659 5659 5660 5660 5661 5662 5662 5662 5663 5663 5664 5664 5665 5665 5665 5665 5665 5665 5665 5664 5664 5663 5662
5687 5682 5678 5674 5670 5667 5664 5661 5659 5657 5655 5654 5653 5652 5651 5650 5649 5649 5649 5649 5649 5650 5650 5651 5652 5652 5653 5654 5655 5655 5656 5656 5657 5658 5658 5659 5659 5659 5659 5658 5658 5658 5657 5656
5674 5670 5666 5662 5658 5655 5651 5649 5647 5645 5643 5643 5643 5642 5642 5642 5641 5641 5641 5640 5641 5641 5642 5643 5643 5644 5645 5645 5646 5647 5647 5648 5649 5650 5651 5651 5652 5652 5652 5652 5651 5651 5650 5650
5660 5655 5651 5647 5644 5641 5638 5635 5633 5631 5630 5630 5630 5631 5631 5632 5632 5632 5632 5631 5632 5633 5634 5634 5634 5635 5636 5637 5638 5638 5639 5639 5640 5641 5642 5643 5644 5644 5644 5644 5644 5644 5643 5643
5645 5641 5637 5633 5629 5626 5623 5621 5619 5617 5616 5616 5617 5618 5619 5620 5621 5622 5622 5622 5623 5625 5626 5625 5626 5626 5628 5628 5629 5630 5630 5631 5631 5632 5633 5634 5635 5636 5636 5637 5637 5636 5636 5636
5630 5625 5621 5617 5613 5609 5606 5604 5602 5601 5601 5601 5602 5603 5605 5607 5608 5610 5611 5612 5614 5616 5616 5616 5616 5617 5619 5620 5621 5621 5622 5622 5623 5623 5624 5625 5626 5627 5628 5628 5629 5628 5628 5628
5611 5606 5601 5596 5593 5590 5587 5584 5583 5584 5584 5584 5586 5587 5589 5592 5594 5596 5599 5602 5604 5604 5605 5605 5607 5608 5610 5611 5612 5613 5614 5614 5615 5615 5615 5616 5617 5618 5619 5620 5620 5620 5620 5620
5588 5582 5577 5572 5568 5565 5563 5561 5560 5561 5563 5565 5567 5570 5573 5576 5579 5582 5585 5589 5592 5592 5594 5595 5597 5599 5600 5601 5602 5604 5605 5606 5607 5607 5607 5608 5608 5609 5610 5611 5612 5612 5613 5612
5564 5558 5552 5547 5542 5538 5536 5535 5535 5536 5539 5543 5548 5552 5555 5559 5563 5567 5571 5575 5578 5580 5582 5584 5587 5589 5590 5591 5593 5595 5597 5598 5598 5599 5600 5600 5600 5601 5602 5603 5604 5604 5605 5605
5542 5535 5528 5522 5516 5512 5511 5510 5510 5512 5515 5520 5526 5532 5537 5543 5547 5552 5556 5560 5563 5567 5570 5573 5575 5577 5579 5580 5583 5586 5588 5589 5590 5591 5592 5593 5593 5594 5595 5595 5596 5596 5597 5597
5524 5516 5508 5501 5496 5492 5490 5488 5489 5491 5494 5499 5506 5513 5519 5525 5531 5537 5541 5545 5549 5553 5557 5560 5563 5565 5567 5569 5572 5576 5579 5581 5582 5584 5585 5586 5586 5587 5587 5588 5588 5589 5589 5589
5510 5502 5495 5489 5483 5479 5477 5476 5476 5477 5479 5483 5489 5496 5503 5509 5516 5522 5527 5531 5535 5539 5543 5547 5550 5553 5555 5558 5562 5566 5569 5572 5574 5575 5577 5578 5579 5580 5581 5581 5581 5582 5582 5582
5499 5493 5487 5481 5476 5472 5470 5468 5467 5468 5469 5471 5476 5482 5488 5496 5502 5509 5514 5519 5523 5527 5531 5534 5538 5541 5544 5548 5551 5555 5559 5562 5565 5567 5569 5571 5572 5573 5574 5574 5575 5575 5575 5575